[[{"header":{"parameterUnit":"m.s-1","parameterCategory":1,"la1":30.2991,"la2":30.254,"lo1":-89.0895,"lo2":-89.0444,"dy":0.0017,"dx":0.0017,"nx":28,"ny":28,"refTime":"2025-03-28T21:00:00:Z","depth":0,"parameterNumber":2,"parameterNumberName":"U-component_of_WINDS"},"data":[0,0,0,0,0,0,0,0,0,0,0,0,0,0,0,0,0,0,0,0,0,0,0,0,0,0,0,0,0,0,0,0,0,0,0,0,0,0,0,0,0,0,0,0,0,0,0,0,0,0,0,0,0,0,0,0,0,0,-5.8113,-5.8115,0,-5.8281,-5.8283,-5.8285,-5.8318,-5.8316,-5.8315,-5.8314,-5.8484,-5.8489,-5.8495,0,0,0,0,0,0,0,0,0,0,0,0,0,-5.782,-5.7825,-5.8113,-5.8115,-5.8117,-5.8281,-5.8283,-5.8285,-5.8318,-5.8316,-5.8315,-5.8313,-5.8482,-5.8488,-5.8495,0,0,0,0,0,0,0,0,0,0,0,0,0,-5.7963,-5.7827,-5.8112,-5.8153,-5.8158,-5.828,-5.8283,-5.8286,-5.8318,-5.8316,-5.8314,-5.8312,-5.8479,-5.8488,-5.8496,-5.8589,0,0,-5.8523,-5.8526,0,0,0,0,0,0,0,0,-5.7955,-5.7974,-5.8145,-5.815,-5.8157,-5.8276,-5.8242,-5.8387,-5.8319,-5.8257,-5.8314,-5.8311,-5.8416,-5.843,-5.8466,-5.8597,-5.8604,-5.8523,-5.8529,-5.8532,-5.8535,0,0,0,0,0,0,0,-5.7945,-5.7967,-5.8179,-5.8147,-5.8155,-5.8163,-5.8181,-5.827,-5.8346,-5.8263,-5.8265,-5.8285,-5.8419,-5.8457,-5.847,-5.8607,-5.8523,-5.8531,-5.8536,-5.854,-5.8824,-5.8827,0,0,0,0,0,0,-5.7928,-5.7958,-5.8174,-5.8184,-5.8049,-5.817,-5.819,-5.824,-5.8345,-5.8359,-5.8286,-5.8286,-5.8443,-5.846,-5.8476,-5.8591,-5.8532,-5.854,-5.8545,-5.8822,-5.8825,-5.8827,0,0,0,0,0,0,-5.7922,-5.7947,-5.8167,-5.8072,-5.8101,-5.8177,-5.8232,-5.8244,-5.8282,-5.8363,-5.8376,-5.8312,-5.8443,-5.8464,-5.8561,-5.8598,-5.8544,-5.8552,-5.8819,-5.8823,-5.8826,-5.8822,0,0,0,0,0,0,-5.7913,-5.7944,-5.798,-5.8073,-5.8106,-5.8249,-5.8235,-5.8249,-5.8298,-5.8298,-5.839,-5.8403,-5.8443,-5.8548,-5.857,-5.8608,-5.8559,-5.8816,-5.8821,-5.8825,-5.882,-5.8825,-5.8831,0,0,0,0,0,-5.7902,-5.7971,-5.7982,-5.8007,-5.8152,-5.8251,-5.827,-5.8314,-5.83,-5.8337,-5.8389,-5.84,-5.8591,-5.8558,-5.8582,-5.8624,-5.8814,-5.8819,-5.8825,-5.8817,-5.8824,-5.883,0,0,0,0,0,0,-5.7879,-5.7984,-5.7997,-5.8098,-5.8166,-5.8257,-5.8303,-5.8321,-5.8393,-5.839,-5.8442,-5.8463,-5.8557,-5.8601,-5.8562,-5.8721,-5.8702,-5.8712,-5.8687,-5.8695,-5.87,-5.8686,-5.8566,0,0,0,0,0,-5.7886,-5.7959,-5.8046,-5.8127,-5.8161,-5.8227,-5.8271,-5.83,-5.8372,-5.8401,-5.846,-5.8529,-5.8604,-5.8653,-5.8727,-5.8828,-5.8848,-5.8869,-5.8874,-5.8879,-5.8886,-5.8943,-5.8954,-5.8845,-5.8845,-5.8845,0,0,-5.79,-5.7967,-5.8009,-5.8124,-5.818,-5.8253,-5.825,-5.8328,-5.8382,-5.8412,-5.8507,-5.8554,-5.8635,-5.8734,-5.8781,-5.8774,-5.8921,-5.8885,-5.8888,-5.8893,-5.895,-5.896,-5.8969,-5.8849,-5.8848,-5.8847,0,0,-5.7964,-5.8022,-5.8096,-5.8153,-5.8238,-5.8282,-5.83,-5.839,-5.8422,-5.8519,-5.8543,-5.861,-5.8739,-5.8795,-5.8841,-5.893,-5.8943,-5.8953,-5.898,-5.9036,-5.9044,-5.9052,-5.9083,-5.9093,-5.8961,-5.8961,-5.8961,0,-5.797,-5.8082,-5.8131,-5.8208,-5.8258,-5.8291,-5.8366,-5.8419,-5.8524,-5.8558,-5.8549,-5.8713,-5.877,-5.8883,-5.8905,-5.8942,-5.8964,-5.8941,-5.9039,-5.9047,-5.9055,-5.9085,-5.9097,-5.8962,-5.8962,-5.8962,-5.8962,0,-5.8085,-5.8163,-5.8213,-5.8314,-5.8371,-5.8446,-5.8507,-5.8558,-5.8584,-5.8629,-5.8728,-5.8798,-5.8887,-5.8917,-5.8942,-5.9035,-5.9028,-5.9029,-5.901,-5.9065,-5.9094,-5.9106,-5.8962,-5.8962,-5.8962,-5.8962,0,0,-5.8134,-5.8265,-5.8282,-5.8329,-5.8428,-5.8489,-5.8567,-5.8656,-5.8698,-5.8771,-5.8837,-5.8948,-5.895,-5.9002,-5.9034,-5.9083,-5.9149,-5.9078,-5.9081,-5.9087,-5.9255,-5.9252,-5.9265,-5.916,-5.9162,-5.9164,-5.9248,0,-5.8207,-5.8348,-5.8396,-5.8512,-5.8585,-5.8619,-5.8688,-5.8755,-5.8801,-5.8869,-5.892,-5.8996,-5.8994,-5.9026,-5.9076,-5.913,-5.9183,-5.9125,-5.9221,-5.9224,-5.9196,-5.928,-5.9277,-5.9352,-5.926,-5.9262,-5.9263,0,-5.831,-5.8386,-5.8509,-5.8601,-5.8633,-5.8693,-5.878,-5.8845,-5.8924,-5.8953,-5.9013,-5.9043,-5.9126,-5.9106,-5.9222,-5.9182,-5.9225,-5.9258,-5.9262,-5.927,-5.9244,-5.9288,-5.9377,-5.9388,-5.9282,-5.928,-5.9279,0,-5.8332,-5.8464,-5.8556,-5.8596,-5.8705,-5.8747,-5.8794,-5.8871,-5.8922,-5.8998,-5.9031,-5.9116,-5.9161,-5.9226,-5.9278,-5.9258,-5.9389,-5.9373,-5.9415,-5.9414,-5.9438,-5.9435,-5.9533,-5.947,-5.947,-5.947,-5.947,0,-5.8407,-5.848,-5.8567,-5.8622,-5.8707,-5.8763,-5.8845,-5.8895,-5.8964,-5.903,-5.9066,-5.9127,-5.9193,-5.9264,-5.9305,-5.9395,-5.9416,-5.9442,-5.9451,-5.9437,-5.9433,-5.9463,-5.9458,-5.9473,-5.9472,-5.9472,-5.9471,0,-5.8442,-5.8504,-5.8605,-5.8702,-5.8728,-5.8786,-5.8869,-5.8924,-5.8973,-5.9057,-5.908,-5.9156,-5.9241,-5.93,-5.9409,-5.9437,-5.9533,-5.9543,-5.9506,-5.9511,-5.9549,-5.9544,-5.9667,-5.9686,-5.9612,-5.9613,-5.9613,0,-5.8485,-5.8543,-5.8647,-5.8694,-5.8742,-5.8818,-5.8871,-5.893,-5.8983,-5.9079,-5.9123,-5.9211,-5.9284,-5.9419,-5.9483,-5.9568,-5.9579,-5.9616,-5.9591,-5.9575,-5.9577,-5.9572,-5.9578,-5.9619,-5.9619,-5.962,-5.962,0,-5.8553,-5.8581,-5.8656,-5.8743,-5.8805,-5.8876,-5.8947,-5.8984,-5.9056,-5.9114,-5.9202,-5.9259,-5.9372,-5.9458,-5.9549,-5.9598,-5.9621,-5.9628,-5.9642,-5.9626,-5.9602,-5.9614,-5.9514,-5.9624,-5.9624,-5.9623,-5.9623,-5.9623,-5.8593,-5.8646,-5.8728,-5.8811,-5.8871,-5.8937,-5.8995,-5.9052,-5.9127,-5.9223,-5.9254,-5.9345,-5.9425,-5.955,-5.9601,-5.9674,-5.9671,-5.9691,-5.9696,-5.9699,-5.9698,-5.9593,-5.9691,-5.9691,-5.9691,-5.9691,-5.9691,0,-5.8661,-5.8717,-5.8793,-5.8892,-5.8957,-5.8976,-5.9056,-5.911,-5.919,-5.9263,-5.9335,-5.9437,-5.9522,-5.9595,-5.9684,-5.9728,-5.974,-5.9749,-5.9744,-5.9755,-5.9696,-5.9675,-5.9737,-5.9737,-5.9737,-5.9737,-5.9737,-5.9737,-5.8704,-5.8796,-5.8834,-5.8957,-5.9012,-5.9102,-5.9146,-5.9208,-5.9267,-5.9379,-5.9451,-5.9499,-5.9572,-5.9667,-5.9746,-5.9766,-5.9796,-5.9801,-5.9823,-5.9765,-5.976,-5.9754,-5.9734,-5.9808,-5.9808,-5.9876,-5.9876,-5.9877]},{"header":{"parameterUnit":"m.s-1","parameterCategory":1,"la1":30.2991,"la2":30.254,"lo1":-89.0895,"lo2":-89.0444,"dy":0.0017,"dx":0.0017,"nx":28,"ny":28,"refTime":"2025-03-28T21:00:00:Z","depth":0,"parameterNumber":3,"parameterNumberName":"V-component_of_WINDS"},"data":[0,0,0,0,0,0,0,0,0,0,0,0,0,0,0,0,0,0,0,0,0,0,0,0,0,0,0,0,0,0,0,0,0,0,0,0,0,0,0,0,0,0,0,0,0,0,0,0,0,0,0,0,0,0,0,0,0,0,3.8624,3.8625,0,3.8741,3.8742,3.8744,3.881,3.881,3.8811,3.8811,3.8926,3.8929,3.8931,0,0,0,0,0,0,0,0,0,0,0,0,0,3.8456,3.8459,3.8624,3.8626,3.8627,3.8741,3.8742,3.8744,3.881,3.881,3.8811,3.8811,3.8925,3.8928,3.8932,0,0,0,0,0,0,0,0,0,0,0,0,0,3.8546,3.846,3.8624,3.8674,3.8679,3.8741,3.8742,3.8744,3.881,3.881,3.8811,3.8811,3.8924,3.8928,3.8932,3.8951,0,0,3.8945,3.8947,0,0,0,0,0,0,0,0,3.8541,3.8553,3.8665,3.867,3.8677,3.8761,3.8726,3.8814,3.881,3.876,3.8811,3.8811,3.887,3.8879,3.89,3.8956,3.8961,3.8945,3.8948,3.895,3.8951,0,0,0,0,0,0,0,3.8535,3.8548,3.867,3.8666,3.8674,3.869,3.8703,3.8742,3.8812,3.8765,3.877,3.8783,3.8874,3.8896,3.8903,3.8963,3.8945,3.8949,3.8952,3.8953,3.9045,3.9044,0,0,0,0,0,0,3.8521,3.8542,3.8667,3.8674,3.8609,3.8693,3.8707,3.8734,3.8812,3.8824,3.8782,3.8786,3.8888,3.8898,3.8908,3.8938,3.895,3.8954,3.8956,3.9045,3.9044,3.9044,0,0,0,0,0,0,3.8517,3.8532,3.8662,3.861,3.8627,3.8695,3.8724,3.8736,3.8758,3.8825,3.8837,3.8792,3.8889,3.8902,3.8941,3.8942,3.8956,3.896,3.9045,3.9045,3.9044,3.8995,0,0,0,0,0,0,3.8512,3.853,3.8538,3.8609,3.863,3.8693,3.8724,3.8738,3.8766,3.8771,3.8838,3.8849,3.889,3.8934,3.8945,3.8948,3.8963,3.9045,3.9045,3.9044,3.8997,3.8994,3.899,0,0,0,0,0,3.8506,3.8518,3.8538,3.8553,3.8642,3.8693,3.8705,3.8754,3.8766,3.8775,3.8818,3.8847,3.894,3.8938,3.895,3.8955,3.9045,3.9045,3.9044,3.8999,3.8994,3.8991,0,0,0,0,0,0,3.8442,3.8528,3.8551,3.8586,3.8633,3.8705,3.8717,3.8747,3.8789,3.8792,3.8849,3.8864,3.8898,3.893,3.8926,3.8979,3.8996,3.8998,3.8957,3.8953,3.895,3.8941,3.8966,0,0,0,0,0,3.8432,3.8468,3.8541,3.8565,3.8587,3.8648,3.8672,3.8706,3.8755,3.8775,3.8821,3.8867,3.8907,3.8932,3.8972,3.9002,3.9019,3.9012,3.9009,3.9006,3.9007,3.9028,3.9027,3.9043,3.9043,3.9043,0,0,3.8412,3.8463,3.8482,3.8554,3.8593,3.8629,3.8664,3.8699,3.8727,3.8779,3.8821,3.8856,3.8911,3.8947,3.8965,3.8975,3.9006,3.9005,3.9002,3.9005,3.9028,3.9026,3.9025,3.9043,3.9043,3.9043,0,0,3.8394,3.8436,3.8462,3.8502,3.8563,3.8604,3.861,3.8679,3.8705,3.8748,3.879,3.8822,3.8889,3.8928,3.8956,3.8957,3.8985,3.8968,3.895,3.897,3.8969,3.8968,3.897,3.897,3.8969,3.8969,3.8969,0,3.836,3.8417,3.8471,3.8506,3.8537,3.8589,3.8617,3.8652,3.8722,3.8742,3.8753,3.8841,3.8881,3.8928,3.8929,3.8949,3.8959,3.896,3.8965,3.8965,3.8965,3.8967,3.8967,3.8966,3.8967,3.8967,3.8967,0,3.8374,3.8413,3.8427,3.8496,3.8529,3.8559,3.8618,3.8644,3.8676,3.8716,3.876,3.8811,3.8864,3.8878,3.8907,3.893,3.8935,3.8954,3.8972,3.896,3.8963,3.8964,3.8963,3.8964,3.8964,3.8965,0,0,3.8317,3.8419,3.8423,3.8457,3.8529,3.856,3.8593,3.8648,3.867,3.8717,3.8747,3.8805,3.8825,3.8857,3.8892,3.891,3.891,3.8928,3.893,3.8924,3.894,3.8925,3.8925,3.893,3.893,3.893,3.8936,0,3.831,3.8375,3.8426,3.8472,3.8509,3.8561,3.8591,3.8639,3.8678,3.8715,3.8757,3.8798,3.882,3.8841,3.886,3.8905,3.8914,3.8906,3.8958,3.896,3.8944,3.8927,3.8911,3.8913,3.8937,3.8937,3.8937,0,3.831,3.8359,3.8409,3.8481,3.8499,3.8524,3.858,3.8615,3.867,3.8698,3.8736,3.8773,3.8812,3.8826,3.8881,3.8874,3.8899,3.8925,3.8926,3.8933,3.8948,3.8934,3.8915,3.8916,3.894,3.894,3.8939,0,3.8266,3.8343,3.8384,3.8411,3.8495,3.8513,3.8548,3.8605,3.8635,3.8683,3.8704,3.8755,3.8783,3.8822,3.8872,3.8878,3.8922,3.894,3.8946,3.8945,3.8953,3.8952,3.8938,3.8967,3.8967,3.8967,3.8967,0,3.8254,3.8282,3.8366,3.8391,3.8426,3.8484,3.8517,3.8557,3.8607,3.8641,3.8688,3.8718,3.8783,3.8822,3.8861,3.8902,3.8913,3.8937,3.8947,3.8933,3.893,3.895,3.8952,3.8967,3.8967,3.8967,3.8967,0,3.8209,3.8266,3.8315,3.8392,3.8412,3.8434,3.85,3.8527,3.857,3.8612,3.8625,3.8692,3.874,3.8795,3.886,3.8887,3.8925,3.8939,3.8906,3.8913,3.8916,3.8915,3.8915,3.8919,3.8944,3.8944,3.8943,0,3.8198,3.8222,3.8303,3.8331,3.8366,3.8408,3.8441,3.85,3.8532,3.8599,3.8618,3.867,3.8715,3.879,3.8843,3.8894,3.8911,3.8908,3.8919,3.8905,3.8913,3.8911,3.8915,3.8904,3.8904,3.8903,3.8903,0,3.8173,3.8201,3.8247,3.8303,3.8341,3.8388,3.8436,3.8455,3.8525,3.8558,3.8609,3.8644,3.8713,3.8765,3.8823,3.8859,3.8893,3.8899,3.8904,3.889,3.8871,3.8883,3.8899,3.8899,3.8899,3.89,3.89,3.89,3.8146,3.8171,3.8233,3.8283,3.8327,3.8372,3.8402,3.845,3.8494,3.8556,3.8588,3.8639,3.8697,3.8779,3.8815,3.8856,3.8867,3.8872,3.8874,3.8875,3.8872,3.8864,3.8866,3.8867,3.8867,3.8867,3.8867,0,3.8125,3.8168,3.8214,3.8282,3.8322,3.8352,3.8408,3.8439,3.8485,3.8536,3.8581,3.8641,3.8692,3.8751,3.8806,3.8828,3.8845,3.884,3.884,3.8848,3.8858,3.885,3.8826,3.8826,3.8826,3.8826,3.8826,3.8826,3.8118,3.8163,3.8199,3.8266,3.831,3.8362,3.8392,3.8434,3.8476,3.8542,3.8586,3.8625,3.868,3.874,3.8789,3.8805,3.8823,3.8815,3.8835,3.8843,3.8847,3.885,3.8843,3.8818,3.8818,3.8822,3.8822,3.8822]}]]